Location: Baia Mare
(47.6567°N, 23.5850°E)
Time: 06:50:51
(UTC+03:00)

ISS - Pass Details

Date: 24 March 2020
Orbit: 417 x 423 km, 51.6° (Epoch: 29 March)

Event Time Altitude Azimuth Distance (km) Brightness Sun altitude
Rises 19:13:44 0° 245° (WSW) 2,351 1.1 -5.7°
Reaches altitude 10° 19:15:49 10° 245° (WSW) 1,491 0.0 -6.1°
Maximum altitude 19:19:10 90° 173° (S) 422 -3.8 -6.6°
Drops below altitude 10° 19:22:32 10° 66° (ENE) 1,498 -1.4 -7.2°
Enters shadow 19:23:20 - 66° (ENE) 1,826 -1.0 -7.3°
